Find Starlink 6038

NORAD ID: 56317 Int'l Des: 2023-058 Owner: SPXS Country: US Constellation: starlink operational
LEOCIRCULARRETROGRADESSO

实时位置

正在加载3D地球...

关于 Starlink 6038

正在加载描述...

即将过境

Passes for default location (London). Set your location on the main map for personalized predictions.

高度历史

Loading altitude history...

两行轨道根数

1 56317U 23058A 26126.95065695 -.00001388 00000-0 -92093-4 0 9991
2 56317 97.5251 128.5584 0001861 83.7040 276.4399 15.05655859166613
Epoch: May 6, 2026 • Age: 10 hours

当前状态

高度 552.0 km
速度 7.59 km/s
星下点 2.84°N, 137.4°E
发射日期 Apr 27, 2023
运行时间 3 years
类型 internet

技术详情

分类 Payload
质量 300.00 kg
干质量 260.00 kg
总质量 300.00 kg
长度 0.20 m
直径 2.80 m
跨度 9.00 m
形状 Box + pan
制造商 SPXS
平台类型 Starlink
阶段状态 In Orbit
所有者/国家 SPXS/US

Most Searched